K4QXN-13 Weather Reports


time (UTC)temp
C
wind
direction
speed
KPH
gust
KPH
rain 1hr
cm
rain 24hr
cm
rain mn
cm
humidity
%
barometer
mb
20260906065017 21 248 0.0 0.0 0.00 0.00 0.00 98 1011.5
20260906064516 21 248 0.0 0.0 0.00 0.00 0.00 98 1011.5
20260906064014 21 293 0.0 0.0 0.00 0.00 0.00 98 1011.5
20260906063513 21 248 0.0 0.0 0.00 0.00 0.00 98 1011.5
20260906063011 21 248 0.0 0.0 0.00 0.00 0.00 98 1011.5
20260906062509 20 0 0.0 0.0 0.00 0.00 0.00 98 1011.5
20260906062008 21 0 0.0 0.0 0.00 0.00 0.00 98 1011.5
20260906061506 20 248 0.0 0.0 0.00 0.00 0.00 98 1011.8
20260906061005 21 248 0.0 0.0 0.00 0.00 0.00 98 1011.8
20260906060503 21 0 0.0 0.0 0.00 0.00 0.00 98 1011.8
20260906060001 21 0 0.0 0.0 0.00 0.00 0.00 98 1012.1
20260906055500 21 225 0.0 0.0 0.00 0.00 0.00 98 1012.1
20260906054958 21 225 0.0 0.0 0.00 0.00 0.00 98 1012.1
20260906054457 21 180 0.0 0.0 0.00 0.00 0.00 98 1011.8
20260906053955 21 270 0.0 0.0 0.00 0.00 0.00 98 1012.1
20260906053453 21 23 0.0 0.0 0.00 0.00 0.00 98 1012.5
20260906052951 21 113 0.0 0.0 0.00 0.00 0.00 98 1011.8
20260906052450 21 203 0.0 0.0 0.00 0.00 0.00 98 1011.8
20260906051948 21 225 0.0 0.0 0.00 0.00 0.00 98 1012.1
20260906051446 21 225 0.0 0.0 0.00 0.00 0.00 98 1012.5
20260906050944 21 225 0.0 0.0 0.00 0.00 0.00 98 1012.5
20260906050442 21 0 0.0 0.0 0.00 0.00 0.00 98 1012.5
20260906045941 21 225 0.0 0.0 0.00 0.00 0.00 98 1012.5
20260906045439 21 248 0.0 0.0 0.00 0.00 0.00 98 1012.1
20260906044937 21 203 0.0 0.0 0.00 0.00 0.00 98 1012.5
20260906044436 21 293 0.0 0.0 0.00 0.00 0.00 98 1012.1
20260906043934 21 0 0.0 0.0 0.00 0.00 0.00 98 1012.5
20260906043432 21 23 0.0 0.0 0.00 0.00 0.00 98 1012.1
20260906042930 21 23 0.0 0.0 0.00 0.00 0.00 98 1012.5
20260906042429 21 293 0.0 0.0 0.00 0.00 0.00 97 1012.8
20260906041927 21 338 0.0 0.0 0.00 0.00 0.00 97 1012.5
20260906041425 21 23 0.0 0.0 0.00 0.00 0.00 97 1012.5
20260906040924 21 248 0.0 0.0 0.00 0.00 0.00 97 1012.5
20260906040422 21 225 0.0 0.0 0.00 0.00 0.00 97 1012.8
20260906035920 21 315 0.0 0.0 0.00 0.08 0.08 97 1012.8
20260906035419 21 225 0.0 0.0 0.00 0.08 0.08 97 1012.8
20260906034917 21 248 0.0 0.0 0.00 0.08 0.08 97 1012.8
20260906034416 21 0 0.0 0.0 0.00 0.08 0.08 97 1012.8
20260906033914 21 225 0.0 0.0 0.00 0.08 0.08 97 1012.8
20260906033412 21 293 0.0 0.0 0.00 0.08 0.08 97 1012.8
20260906032910 21 315 0.0 0.0 0.00 0.08 0.08 97 1012.8
20260906032409 21 225 0.0 0.0 0.00 0.08 0.08 97 1012.8
20260906031907 21 225 0.0 0.0 0.00 0.08 0.08 97 1012.8
20260906031406 21 225 0.0 0.0 0.00 0.08 0.08 97 1012.8
20260906030904 21 203 0.0 0.0 0.00 0.08 0.08 97 1012.8
20260906030403 21 203 0.0 0.0 0.00 0.08 0.08 96 1012.8
20260906025901 22 45 0.0 0.0 0.00 0.08 0.08 96 1012.8
20260906025359 22 270 0.0 0.0 0.00 0.08 0.08 96 1013.2
20260906024857 22 225 0.0 1.6 0.00 0.08 0.08 96 1012.8
20260906024356 22 248 0.0 0.0 0.00 0.08 0.08 96 1013.2
20260906023854 22 248 0.0 0.0 0.00 0.08 0.08 96 1012.8
20260906023353 22 23 0.0 0.0 0.00 0.08 0.08 96 1012.8
20260906022851 22 203 0.0 0.0 0.00 0.08 0.08 96 1012.8
20260906022349 22 225 0.0 0.0 0.00 0.08 0.08 96 1012.8
20260906021848 22 225 0.0 1.6 0.00 0.08 0.08 95 1012.8
20260906021346 22 203 0.0 0.0 0.00 0.08 0.08 95 1012.5
20260906020845 22 225 0.0 0.0 0.00 0.08 0.08 95 1012.8
20260906020343 22 225 0.0 0.0 0.00 0.08 0.08 95 1012.5
20260906015841 22 203 0.0 0.0 0.00 0.08 0.08 95 1012.5
20260906015340 22 338 0.0 0.0 0.00 0.08 0.08 95 1012.5
20260906014838 22 0 0.0 0.0 0.00 0.08 0.08 94 1012.5
20260906014336 22 315 0.0 0.0 0.00 0.08 0.08 94 1012.5
20260906013835 22 248 0.0 1.6 0.00 0.08 0.08 94 1012.1
20260906013333 22 225 0.0 1.6 0.00 0.08 0.08 94 1012.5
20260906012832 22 248 1.6 3.2 0.00 0.08 0.08 94 1012.5
20260906012330 22 203 0.0 1.6 0.00 0.08 0.08 93 1012.5
20260906011828 22 248 1.6 3.2 0.00 0.08 0.08 93 1012.1
20260906011327 23 225 0.0 0.0 0.00 0.08 0.08 93 1012.1
20260906010825 23 225 0.0 1.6 0.00 0.08 0.08 93 1012.1
20260906010323 23 225 3.2 4.8 0.00 0.08 0.08 93 1012.1
20260906005821 23 180 0.0 1.6 0.00 0.08 0.08 92 1012.1
20260906005320 23 180 3.2 3.2 0.00 0.08 0.08 92 1012.1
20260906004818 23 203 1.6 3.2 0.00 0.08 0.08 92 1011.8
20260906004316 23 248 0.0 3.2 0.00 0.08 0.08 92 1011.8
20260906003815 23 270 0.0 0.0 0.00 0.08 0.08 92 1012.1
20260906003313 23 248 0.0 0.0 0.00 0.08 0.08 92 1012.1
20260906002812 23 203 3.2 4.8 0.00 0.08 0.08 91 1012.1
20260906002310 23 203 1.6 1.6 0.00 0.08 0.08 91 1012.1
20260906001808 23 248 0.0 0.0 0.00 0.08 0.08 91 1012.1
20260906001306 23 225 0.0 0.0 0.00 0.08 0.08 90 1011.8
20260906000805 23 225 0.0 0.0 0.00 0.08 0.08 90 1011.8
20260906000303 24 225 3.2 3.2 0.00 0.08 0.08 88 1011.8
20260905235801 24 203 0.0 0.0 0.00 0.08 0.08 87 1011.8
20260905235259 24 225 0.0 0.0 0.00 0.08 0.08 87 1011.5
20260905234758 25 203 0.0 0.0 0.00 0.08 0.08 85 1011.5
20260905234256 25 203 0.0 0.0 0.00 0.08 0.08 84 1011.5
20260905233754 25 203 0.0 0.0 0.00 0.08 0.08 83 1011.8
20260905233253 25 248 0.0 0.0 0.00 0.08 0.08 82 1011.5
20260905232751 25 23 0.0 0.0 0.00 0.08 0.08 81 1011.1
20260905232250 25 23 0.0 0.0 0.00 0.08 0.08 81 1011.5
20260905231748 26 23 0.0 1.6 0.00 0.08 0.08 81 1011.1
20260905231246 26 23 1.6 3.2 0.00 0.08 0.08 80 1011.1
20260905230745 26 45 1.6 3.2 0.00 0.08 0.08 79 1011.1
20260905230243 26 23 0.0 1.6 0.00 0.08 0.08 79 1011.1
20260905225741 26 180 0.0 0.0 0.00 0.08 0.08 79 1011.1
20260905225240 26 248 1.6 3.2 0.00 0.08 0.08 79 1011.1
20260905224738 26 158 0.0 1.6 0.00 0.08 0.08 79 1011.1
20260905224237 26 270 0.0 0.0 0.00 0.08 0.08 79 1011.1
20260905223735 26 225 0.0 0.0 0.00 0.08 0.08 79 1011.1
20260905223233 26 270 0.0 1.6 0.00 0.08 0.08 79 1011.1
20260905222731 26 45 0.0 0.0 0.00 0.08 0.08 77 1010.8
20260905222230 27 293 0.0 0.0 0.00 0.08 0.08 75 1011.1
20260905221728 27 270 0.0 0.0 0.00 0.08 0.08 75 1011.1
20260905221226 27 90 0.0 1.6 0.00 0.08 0.08 74 1011.1
20260905220724 27 293 3.2 3.2 0.00 0.08 0.08 73 1011.1
20260905220223 27 45 1.6 4.8 0.00 0.08 0.08 73 1011.1
20260905215721 27 0 0.0 0.0 0.00 0.08 0.08 76 1011.1
20260905215220 27 113 4.8 8.0 0.00 0.08 0.08 77 1011.1
20260905214718 26 23 6.4 8.0 0.00 0.08 0.08 75 1011.1
20260905214216 27 0 1.6 3.2 0.00 0.08 0.08 76 1011.5
20260905213714 27 45 3.2 4.8 0.00 0.08 0.08 75 1011.5
20260905213212 26 68 0.0 1.6 0.00 0.08 0.08 78 1011.5
20260905212710 27 293 0.0 1.6 0.00 0.08 0.08 81 1011.5
20260905212209 26 90 0.0 3.2 0.00 0.08 0.08 82 1011.5
20260905211707 25 293 0.0 1.6 0.00 0.08 0.08 86 1011.8
20260905211205 25 225 0.0 0.0 0.00 0.08 0.08 88 1011.8
20260905210703 24 225 0.0 0.0 0.00 0.08 0.08 90 1011.8
20260905210202 23 0 3.2 4.8 0.00 0.08 0.08 90 1012.1
20260905205700 23 225 1.6 1.6 0.05 0.08 0.08 91 1012.1
20260905205158 23 203 3.2 3.2 0.05 0.08 0.08 91 1012.1
20260905204656 23 203 0.0 0.0 0.05 0.08 0.08 91 1012.1
20260905204154 23 90 0.0 0.0 0.05 0.08 0.08 90 1011.8
20260905203653 23 68 0.0 0.0 0.05 0.08 0.08 90 1012.1
20260905203151 23 225 0.0 0.0 0.05 0.08 0.08 88 1012.1
20260905202649 23 225 0.0 1.6 0.05 0.08 0.08 88 1011.8
20260905202148 23 248 1.6 3.2 0.03 0.05 0.05 87 1012.5
20260905201646 25 203 0.0 0.0 0.00 0.05 0.05 87 1012.8
20260905201145 25 315 0.0 3.2 0.00 0.05 0.05 85 1012.5
20260905200643 25 23 0.0 0.0 0.00 0.05 0.05 84 1012.5
20260905200141 25 0 0.0 0.0 0.00 0.05 0.05 85 1012.5
20260905195640 25 23 3.2 3.2 0.05 0.05 0.05 83 1012.5
20260905195138 25 0 3.2 3.2 0.05 0.05 0.05 86 1012.5
20260905194636 25 248 0.0 0.0 0.05 0.05 0.05 84 1011.8
20260905194134 26 315 4.8 8.0 0.05 0.05 0.05 84 1011.8
20260905193633 27 135 4.8 8.0 0.05 0.05 0.05 81 1011.8
20260905193132 29 180 4.8 11.3 0.03 0.03 0.03 73 1012.1
20260905192630 33 68 3.2 4.8 0.00 0.00 0.00 62 1011.5
20260905192128 34 203 1.6 3.2 0.00 0.00 0.00 52 1011.1
20260905191627 35 68 0.0 1.6 0.00 0.00 0.00 50 1011.5
20260905191125 35 45 1.6 3.2 0.00 0.00 0.00 48 1011.5
20260905190623 36 270 0.0 1.6 0.00 0.00 0.00 48 1011.1
20260905190121 36 158 1.6 3.2 0.00 0.00 0.00 48 1011.1
20260905185620 37 180 0.0 1.6 0.00 0.00 0.00 47 1011.1
20260905185118 37 45 3.2 3.2 0.00 0.00 0.00 46 1011.1
20260905184617 37 315 0.0 1.6 0.00 0.00 0.00 45 1011.1
20260905184115 37 180 4.8 4.8 0.00 0.00 0.00 47 1011.5
20260905183613 38 270 0.0 3.2 0.00 0.00 0.00 45 1011.5
20260905183112 37 90 1.6 3.2 0.00 0.00 0.00 45 1011.5
20260905182610 38 203 4.8 8.0 0.00 0.00 0.00 46 1011.5
20260905182108 37 45 0.0 1.6 0.00 0.00 0.00 49 1011.5
20260905181607 36 158 3.2 4.8 0.00 0.00 0.00 48 1011.8
20260905181105 37 203 3.2 4.8 0.00 0.00 0.00 46 1011.8
20260905180604 37 0 1.6 3.2 0.00 0.00 0.00 48 1012.1
20260905175601 35 23 4.8 8.0 0.00 0.00 0.00 51 1012.1
20260905175059 34 23 3.2 4.8 0.00 0.00 0.00 52 1012.5
20260905174557 35 68 3.2 4.8 0.00 0.00 0.00 51 1012.1
20260905174056 36 23 0.0 1.6 0.00 0.00 0.00 48 1012.5
20260905173554 37 338 0.0 0.0 0.00 0.00 0.00 46 1012.5
20260905173052 36 68 1.6 3.2 0.00 0.00 0.00 47 1012.8
20260905172551 35 23 6.4 8.0 0.00 0.00 0.00 47 1012.8
20260905172049 36 23 4.8 8.0 0.00 0.00 0.00 47 1012.8
20260905171548 36 45 6.4 9.7 0.00 0.00 0.00 49 1012.8
20260905171046 37 90 0.0 1.6 0.00 0.00 0.00 49 1012.8
20260905170544 36 225 4.8 6.4 0.00 0.00 0.00 48 1012.8
20260905170043 36 180 0.0 1.6 0.00 0.00 0.00 53 1013.2
20260905165541 36 225 0.0 0.0 0.00 0.00 0.00 54 1013.5
20260905165040 37 180 0.0 1.6 0.00 0.00 0.00 52 1013.5
20260905164538 36 135 3.2 8.0 0.00 0.00 0.00 54 1013.2
20260905164036 36 225 0.0 1.6 0.00 0.00 0.00 54 1013.5
20260905163535 36 180 3.2 3.2 0.00 0.00 0.00 54 1013.5
20260905163033 35 203 4.8 4.8 0.00 0.00 0.00 56 1013.5
20260905162531 36 248 6.4 9.7 0.00 0.00 0.00 54 1013.5
20260905162030 35 293 4.8 6.4 0.00 0.00 0.00 56 1013.8
20260905161528 36 248 1.6 3.2 0.00 0.00 0.00 57 1013.5
20260905161027 36 203 6.4 8.0 0.00 0.00 0.00 56 1013.8
20260905160526 36 113 1.6 3.2 0.00 0.00 0.00 59 1013.8
20260905160024 35 68 3.2 3.2 0.00 0.00 0.00 61 1013.8
20260905155522 35 248 3.2 3.2 0.00 0.00 0.00 62 1013.8
20260905155020 35 248 6.4 8.0 0.00 0.00 0.00 61 1013.8
20260905154519 35 225 3.2 3.2 0.00 0.00 0.00 63 1013.8
20260905154017 35 225 0.0 3.2 0.00 0.00 0.00 62 1013.8
20260905153516 34 203 3.2 3.2 0.00 0.00 0.00 64 1013.8
20260905153014 34 203 0.0 0.0 0.00 0.00 0.00 65 1013.8
20260905152512 33 158 3.2 3.2 0.00 0.00 0.00 66 1013.8
20260905152011 33 158 3.2 3.2 0.00 0.00 0.00 66 1014.2
20260905151509 33 225 6.4 8.0 0.00 0.00 0.00 64 1013.8
20260905151008 33 293 1.6 3.2 0.00 0.00 0.00 68 1014.2
20260905150506 33 203 6.4 8.0 0.00 0.00 0.00 67 1013.8
20260905150004 33 248 1.6 3.2 0.00 0.00 0.00 67 1013.8
20260905145503 33 68 0.0 3.2 0.00 0.00 0.00 66 1013.8
20260905145001 33 293 1.6 3.2 0.00 0.00 0.00 68 1014.2
20260905144459 32 158 3.2 6.4 0.00 0.00 0.00 69 1014.2
20260905143957 32 248 6.4 9.7 0.00 0.00 0.00 68 1014.2
20260905143455 32 225 6.4 8.0 0.00 0.00 0.00 68 1013.8
20260905142954 32 248 0.0 1.6 0.00 0.00 0.00 69 1013.8
20260905142452 32 203 1.6 3.2 0.00 0.00 0.00 68 1014.2
20260905141950 32 0 0.0 1.6 0.00 0.00 0.00 72 1014.2
20260905141449 31 203 0.0 3.2 0.00 0.00 0.00 73 1013.8
20260905140947 31 68 0.0 1.6 0.00 0.00 0.00 73 1014.2
20260905140445 31 248 0.0 1.6 0.00 0.00 0.00 74 1013.8
20260905135944 31 248 4.8 4.8 0.00 0.00 0.00 75 1013.8
20260905135442 30 338 1.6 3.2 0.00 0.00 0.00 77 1014.2
20260905134941 29 203 3.2 4.8 0.00 0.00 0.00 78 1013.8
20260905134440 30 248 1.6 3.2 0.00 0.00 0.00 78 1014.5
20260905133938 30 270 1.6 3.2 0.00 0.00 0.00 78 1014.2
20260905133436 29 248 1.6 4.8 0.00 0.00 0.00 80 1014.5
20260905132935 28 225 6.4 8.0 0.00 0.00 0.00 79 1014.2
20260905132433 28 270 1.6 3.2 0.00 0.00 0.00 80 1014.5
20260905131932 28 270 1.6 3.2 0.00 0.00 0.00 81 1014.5
20260905131430 28 248 0.0 0.0 0.00 0.00 0.00 83 1014.5
20260905130928 28 225 6.4 8.0 0.00 0.00 0.00 82 1014.5
20260905130427 28 225 1.6 1.6 0.00 0.00 0.00 83 1014.5
20260905125925 27 203 0.0 1.6 0.00 0.00 0.00 84 1014.9
20260905125424 27 158 0.0 0.0 0.00 0.00 0.00 86 1014.5
20260905124922 27 203 1.6 3.2 0.00 0.00 0.00 85 1014.5
20260905124421 26 203 1.6 1.6 0.00 0.00 0.00 87 1014.5
20260905123919 26 248 3.2 4.8 0.00 0.00 0.00 88 1014.5
20260905123418 26 203 4.8 8.0 0.00 0.00 0.00 89 1014.5
20260905122916 25 158 4.8 8.0 0.00 0.00 0.00 89 1014.5
20260905122414 25 180 3.2 4.8 0.00 0.00 0.00 90 1014.5
20260905121912 25 248 3.2 4.8 0.00 0.00 0.00 91 1014.5
20260905121411 25 225 0.0 0.0 0.00 0.00 0.00 92 1014.5
20260905120909 25 225 0.0 0.0 0.00 0.00 0.00 93 1014.5
20260905120407 24 248 0.0 0.0 0.00 0.00 0.00 94 1014.5
20260905115906 24 225 0.0 0.0 0.00 0.00 0.00 95 1014.5
20260905115404 24 248 0.0 0.0 0.00 0.00 0.00 95 1014.5
20260905114903 23 23 0.0 0.0 0.00 0.00 0.00 96 1014.5
20260905114401 23 45 0.0 0.0 0.00 0.00 0.00 96 1014.2
20260905113859 23 45 0.0 0.0 0.00 0.00 0.00 96 1014.2
20260905113358 23 23 0.0 0.0 0.00 0.00 0.00 96 1014.2
20260905112856 22 90 0.0 0.0 0.00 0.00 0.00 96 1014.2
20260905112354 22 225 0.0 0.0 0.00 0.00 0.00 96 1013.8
20260905111853 22 203 0.0 0.0 0.00 0.00 0.00 95 1013.8
20260905111351 22 0 0.0 0.0 0.00 0.00 0.00 95 1013.8
20260905110850 23 293 0.0 0.0 0.00 0.00 0.00 95 1013.5
20260905110348 23 23 0.0 0.0 0.00 0.00 0.00 95 1013.5
20260905105846 23 45 0.0 0.0 0.00 0.00 0.00 95 1013.5
20260905105345 23 180 0.0 0.0 0.00 0.00 0.00 95 1013.2
20260905104843 23 248 0.0 0.0 0.00 0.00 0.00 95 1013.2
20260905104341 23 270 0.0 0.0 0.00 0.00 0.00 95 1012.8
20260905103839 23 225 0.0 0.0 0.00 0.00 0.00 95 1012.8
20260905103338 23 203 0.0 0.0 0.00 0.00 0.00 95 1013.2
20260905102836 23 225 0.0 0.0 0.00 0.00 0.00 95 1012.8
20260905102334 23 225 0.0 0.0 0.00 0.00 0.00 95 1012.8
20260905101833 23 225 0.0 0.0 0.00 0.00 0.00 95 1012.8
20260905101332 23 225 0.0 0.0 0.00 0.00 0.00 95 1012.8
20260905100830 23 225 0.0 0.0 0.00 0.00 0.00 95 1012.8
20260905100328 23 203 0.0 0.0 0.00 0.00 0.00 95 1012.8
20260905095826 23 180 0.0 0.0 0.00 0.00 0.00 94 1012.8
20260905095325 23 203 0.0 0.0 0.00 0.00 0.00 94 1012.5
20260905094823 23 225 0.0 0.0 0.00 0.00 0.00 94 1012.8
20260905094322 23 248 0.0 0.0 0.00 0.00 0.00 94 1012.8
20260905093820 23 248 0.0 0.0 0.00 0.00 0.00 94 1012.8
20260905093318 23 225 0.0 0.0 0.00 0.00 0.00 94 1012.8
20260905092816 23 225 0.0 0.0 0.00 0.00 0.00 94 1012.8
20260905092315 23 270 0.0 0.0 0.00 0.00 0.00 94 1012.8
20260905091813 23 203 0.0 0.0 0.00 0.00 0.00 94 1012.8
20260905091311 23 203 0.0 0.0 0.00 0.00 0.00 94 1012.8
20260905090809 23 225 0.0 0.0 0.00 0.00 0.00 93 1012.8
20260905090308 23 225 0.0 0.0 0.00 0.00 0.00 93 1012.8
20260905085806 23 225 0.0 0.0 0.00 0.00 0.00 93 1013.2
20260905085306 23 225 0.0 0.0 0.00 0.00 0.00 93 1013.2
20260905084802 23 225 0.0 0.0 0.00 0.00 0.00 93 1012.8
20260905084301 23 248 0.0 0.0 0.00 0.00 0.00 93 1013.2
20260905083759 23 225 0.0 0.0 0.00 0.00 0.00 93 1013.2
20260905083257 23 270 0.0 0.0 0.00 0.00 0.00 93 1013.2
20260905082755 23 270 0.0 0.0 0.00 0.00 0.00 93 1013.5
20260905082253 23 225 0.0 0.0 0.00 0.00 0.00 93 1013.2
20260905081752 23 270 0.0 0.0 0.00 0.00 0.00 93 1013.5
20260905081250 23 225 0.0 0.0 0.00 0.00 0.00 93 1013.2
20260905080749 23 225 0.0 0.0 0.00 0.00 0.00 93 1013.5
20260905080247 23 225 0.0 0.0 0.00 0.00 0.00 93 1013.5
20260905075745 23 225 0.0 0.0 0.00 0.00 0.00 93 1013.5
20260905075243 23 203 0.0 0.0 0.00 0.00 0.00 93 1013.5
20260905074742 23 203 0.0 0.0 0.00 0.00 0.00 93 1013.5
20260905074240 23 248 0.0 0.0 0.00 0.00 0.00 93 1013.8
20260905073738 23 225 0.0 0.0 0.00 0.00 0.00 93 1013.5
20260905073236 23 270 0.0 0.0 0.00 0.00 0.00 93 1013.5
20260905072735 23 225 0.0 0.0 0.00 0.00 0.00 93 1013.8
20260905072233 23 68 0.0 0.0 0.00 0.00 0.00 93 1013.5
20260905071731 23 293 0.0 0.0 0.00 0.00 0.00 92 1013.5
20260905071230 23 0 0.0 0.0 0.00 0.00 0.00 92 1013.8
20260905070728 24 293 0.0 0.0 0.00 0.00 0.00 93 1013.8
20260905070226 23 293 0.0 0.0 0.00 0.00 0.00 93 1013.8
20260905065725 23 0 0.0 0.0 0.00 0.00 0.00 93 1014.2